User: anonymous   Login
Location: Unspecified
(0.0000°N, 0.0000°E)
Time: 17:20:44
(UTC+01:00)
Language:

Meteor 1-31 Rocket - Orbit

View from above orbital plane
View from above orbital plane
View from above satellite
View from above satellite

Ground track
Ground track

The orbit data is extracted from the following two-line orbital elements,

1 12586U 81065B   17053.54567928  .00000588  00000-0  40150-4 0  9999
2 12586  97.4854  37.7185 0017836 231.5603 128.4027 15.09831020939203
Epoch (UTC): 22 February 2017 13:05:46
Eccentricity: 0.0017836
inclination: 97.4854°
perigee height: 524 km
apogee height: 549 km
right ascension of ascending node: 37.7185°
argument of perigee: 231.5603°
revolutions per day: 15.09831020
mean anomaly at epoch: 128.4027°
orbit number at epoch: 93920

The dashed part of the orbit path shows where the satellite is in the earth's shadow,  

DLR